Year,Month,Day,Hour,Minute,Value (Times are PST for temperature in C)
2009,07,05,00,00,16.60
2009,07,05,00,01,16.60
2009,07,05,00,02,16.60
2009,07,05,00,03,16.60
2009,07,05,00,04,16.60
2009,07,05,00,05,16.60
2009,07,05,00,06,16.60
2009,07,05,00,07,16.60
2009,07,05,00,08,16.50
2009,07,05,00,09,16.50
2009,07,05,00,10,16.50
2009,07,05,00,11,16.50
2009,07,05,00,12,16.40
2009,07,05,00,13,16.40
2009,07,05,00,14,16.40
2009,07,05,00,15,16.40
2009,07,05,00,16,16.40
2009,07,05,00,17,16.40
2009,07,05,00,18,16.40
2009,07,05,00,19,16.40
2009,07,05,00,20,16.40
2009,07,05,00,21,16.40
2009,07,05,00,22,16.40
2009,07,05,00,23,16.30
2009,07,05,00,24,16.30
2009,07,05,00,25,16.30
2009,07,05,00,26,16.30
2009,07,05,00,27,16.30
2009,07,05,00,28,16.30
2009,07,05,00,29,16.30
2009,07,05,00,30,16.40
2009,07,05,00,31,16.40
2009,07,05,00,32,16.30
2009,07,05,00,33,16.30
2009,07,05,00,34,16.30
2009,07,05,00,35,16.30
2009,07,05,00,36,16.30
2009,07,05,00,37,16.30
2009,07,05,00,38,16.30
2009,07,05,00,39,16.30
2009,07,05,00,40,16.30
2009,07,05,00,41,16.30
2009,07,05,00,42,16.30
2009,07,05,00,43,16.30
2009,07,05,00,44,16.30
2009,07,05,00,45,16.30
2009,07,05,00,46,16.20
2009,07,05,00,47,16.30
2009,07,05,00,48,16.30
2009,07,05,00,49,16.30
2009,07,05,00,50,16.20
2009,07,05,00,51,16.20
2009,07,05,00,52,16.20
2009,07,05,00,53,16.20
2009,07,05,00,54,16.20
2009,07,05,00,55,16.20
2009,07,05,00,56,16.20
2009,07,05,00,57,16.20
2009,07,05,00,58,16.20
2009,07,05,00,59,16.20
2009,07,05,01,00,16.20
2009,07,05,01,01,16.20
2009,07,05,01,02,16.20
2009,07,05,01,03,16.20
2009,07,05,01,04,16.10
2009,07,05,01,05,16.10
2009,07,05,01,06,16.10
2009,07,05,01,07,16.10
2009,07,05,01,08,16.10
2009,07,05,01,09,16.10
2009,07,05,01,10,16.00
2009,07,05,01,11,16.00
2009,07,05,01,12,16.00
2009,07,05,01,13,16.00
2009,07,05,01,14,15.90
2009,07,05,01,15,15.90
2009,07,05,01,16,15.90
2009,07,05,01,17,15.90
2009,07,05,01,18,15.90
2009,07,05,01,19,15.90
2009,07,05,01,20,15.90
2009,07,05,01,21,15.80
2009,07,05,01,22,15.80
2009,07,05,01,23,15.80
2009,07,05,01,24,15.80
2009,07,05,01,25,15.80
2009,07,05,01,26,15.80
2009,07,05,01,27,15.80
2009,07,05,01,28,15.80
2009,07,05,01,29,15.90
2009,07,05,01,30,15.90
2009,07,05,01,31,15.90
2009,07,05,01,32,15.90
2009,07,05,01,33,15.90
2009,07,05,01,34,15.90
2009,07,05,01,35,15.90
2009,07,05,01,36,15.90
2009,07,05,01,37,15.90
2009,07,05,01,38,15.90
2009,07,05,01,39,15.90
2009,07,05,01,40,15.90
2009,07,05,01,41,15.90
2009,07,05,01,42,15.90
2009,07,05,01,43,15.90
2009,07,05,01,44,15.80
2009,07,05,01,45,15.80
2009,07,05,01,46,15.80
2009,07,05,01,47,15.80
2009,07,05,01,48,15.80
2009,07,05,01,49,15.80
2009,07,05,01,50,15.80
2009,07,05,01,51,15.80
2009,07,05,01,52,15.80
2009,07,05,01,53,15.80
2009,07,05,01,54,15.80
2009,07,05,01,55,15.80
2009,07,05,01,56,15.80
2009,07,05,01,57,15.70
2009,07,05,01,58,15.70
2009,07,05,01,59,15.70
2009,07,05,02,00,15.70
2009,07,05,02,01,15.70
2009,07,05,02,02,15.70
2009,07,05,02,03,15.70
2009,07,05,02,04,15.70
2009,07,05,02,05,15.70
2009,07,05,02,06,15.60
2009,07,05,02,07,15.60
2009,07,05,02,08,15.60
2009,07,05,02,09,15.60
2009,07,05,02,10,15.60
2009,07,05,02,11,15.60
2009,07,05,02,12,15.60
2009,07,05,02,13,15.60
2009,07,05,02,14,15.70
2009,07,05,02,15,15.70
2009,07,05,02,16,15.70
2009,07,05,02,17,15.60
2009,07,05,02,18,15.60
2009,07,05,02,19,15.60
2009,07,05,02,20,15.60
2009,07,05,02,21,15.60
2009,07,05,02,22,15.50
2009,07,05,02,23,15.50
2009,07,05,02,24,15.50
2009,07,05,02,25,15.50
2009,07,05,02,26,15.40
2009,07,05,02,27,15.40
2009,07,05,02,28,15.40
2009,07,05,02,29,15.40
2009,07,05,02,30,15.30
2009,07,05,02,31,15.30
2009,07,05,02,32,15.30
2009,07,05,02,33,15.30
2009,07,05,02,34,15.30
2009,07,05,02,35,15.20
2009,07,05,02,36,15.20
2009,07,05,02,37,15.20
2009,07,05,02,38,15.20
2009,07,05,02,39,15.20
2009,07,05,02,40,15.10
2009,07,05,02,41,15.10
2009,07,05,02,42,15.10
2009,07,05,02,43,15.10
2009,07,05,02,44,15.00
2009,07,05,02,45,15.00
2009,07,05,02,46,15.00
2009,07,05,02,47,15.00
2009,07,05,02,48,15.00
2009,07,05,02,49,15.00
2009,07,05,02,50,15.00
2009,07,05,02,51,15.00
2009,07,05,02,52,15.00
2009,07,05,02,53,15.00
2009,07,05,02,54,15.00
2009,07,05,02,55,15.00
2009,07,05,02,56,15.00
2009,07,05,02,57,15.00
2009,07,05,02,58,15.00
2009,07,05,02,59,15.00
2009,07,05,03,00,15.00
2009,07,05,03,01,15.00
2009,07,05,03,02,15.00
2009,07,05,03,03,15.00
2009,07,05,03,04,15.00
2009,07,05,03,05,15.00
2009,07,05,03,06,15.00
2009,07,05,03,07,15.00
2009,07,05,03,08,15.00
2009,07,05,03,09,15.00
2009,07,05,03,10,15.00
2009,07,05,03,11,15.00
2009,07,05,03,12,15.00
2009,07,05,03,13,15.00
2009,07,05,03,14,15.00
2009,07,05,03,15,15.00
2009,07,05,03,16,15.00
2009,07,05,03,17,15.00
2009,07,05,03,18,15.00
2009,07,05,03,19,15.00
2009,07,05,03,20,15.00
2009,07,05,03,21,14.90
2009,07,05,03,22,14.80
2009,07,05,03,23,14.80
2009,07,05,03,24,14.80
2009,07,05,03,25,14.80
2009,07,05,03,26,14.80
2009,07,05,03,27,14.80
2009,07,05,03,28,14.80
2009,07,05,03,29,14.80
2009,07,05,03,30,14.70
2009,07,05,03,31,14.70
2009,07,05,03,32,14.70
2009,07,05,03,33,14.70
2009,07,05,03,34,14.60
2009,07,05,03,35,14.60
2009,07,05,03,36,14.60
2009,07,05,03,37,14.50
2009,07,05,03,38,14.50
2009,07,05,03,39,14.40
2009,07,05,03,40,14.40
2009,07,05,03,41,14.40
2009,07,05,03,42,14.40
2009,07,05,03,43,14.40
2009,07,05,03,44,14.40
2009,07,05,03,45,14.40
2009,07,05,03,46,14.40
2009,07,05,03,47,14.40
2009,07,05,03,48,14.40
2009,07,05,03,49,14.40
2009,07,05,03,50,14.40
2009,07,05,03,51,14.40
2009,07,05,03,52,14.30
2009,07,05,03,53,14.30
2009,07,05,03,54,14.30
2009,07,05,03,55,14.30
2009,07,05,03,56,14.30
2009,07,05,03,57,14.30
2009,07,05,03,58,14.30
2009,07,05,03,59,14.20
2009,07,05,04,00,14.20
2009,07,05,04,01,14.20
2009,07,05,04,02,14.20
2009,07,05,04,03,14.10
2009,07,05,04,04,14.10
2009,07,05,04,05,14.10
2009,07,05,04,06,14.10
2009,07,05,04,07,14.10
2009,07,05,04,08,14.10
2009,07,05,04,09,14.10
2009,07,05,04,10,14.10
2009,07,05,04,11,14.10
2009,07,05,04,12,14.10
2009,07,05,04,13,14.10
2009,07,05,04,14,14.10
2009,07,05,04,15,14.10
2009,07,05,04,16,14.10
2009,07,05,04,17,14.10
2009,07,05,04,18,14.10
2009,07,05,04,19,14.10
2009,07,05,04,20,14.10
2009,07,05,04,21,14.10
2009,07,05,04,22,14.10
2009,07,05,04,23,14.10
2009,07,05,04,24,14.10
2009,07,05,04,25,14.10
2009,07,05,04,26,14.10
2009,07,05,04,27,14.00
2009,07,05,04,28,14.00
2009,07,05,04,29,14.00
2009,07,05,04,30,13.90
2009,07,05,04,31,13.90
2009,07,05,04,32,13.90
2009,07,05,04,33,13.90
2009,07,05,04,34,13.90
2009,07,05,04,35,13.80
2009,07,05,04,36,13.80
2009,07,05,04,37,13.80
2009,07,05,04,38,13.80
2009,07,05,04,39,13.80
2009,07,05,04,40,13.80
2009,07,05,04,41,13.80
2009,07,05,04,42,13.70
2009,07,05,04,43,13.70
2009,07,05,04,44,13.70
2009,07,05,04,45,13.70
2009,07,05,04,46,13.70
2009,07,05,04,47,13.70
2009,07,05,04,48,13.70
2009,07,05,04,49,13.70
2009,07,05,04,50,13.70
2009,07,05,04,51,13.70
2009,07,05,04,52,13.70
2009,07,05,04,53,13.70
2009,07,05,04,54,13.70
2009,07,05,04,55,13.70
2009,07,05,04,56,13.70
2009,07,05,04,57,13.70
2009,07,05,04,58,13.70
2009,07,05,04,59,13.70
2009,07,05,05,00,13.70
2009,07,05,05,01,13.60
2009,07,05,05,02,13.60
2009,07,05,05,03,13.60
2009,07,05,05,04,13.60
2009,07,05,05,05,13.60
2009,07,05,05,06,13.60
2009,07,05,05,07,13.60
2009,07,05,05,08,13.60
2009,07,05,05,09,13.60
2009,07,05,05,10,13.60
2009,07,05,05,11,13.60
2009,07,05,05,12,13.60
2009,07,05,05,13,13.60
2009,07,05,05,14,13.70
2009,07,05,05,15,13.70
2009,07,05,05,16,13.70
2009,07,05,05,17,13.80
2009,07,05,05,18,13.80
2009,07,05,05,19,13.80
2009,07,05,05,20,13.80
2009,07,05,05,21,13.80
2009,07,05,05,22,13.80
2009,07,05,05,23,13.80
2009,07,05,05,24,13.80
2009,07,05,05,25,13.80
2009,07,05,05,26,13.80
2009,07,05,05,27,13.80
2009,07,05,05,28,13.80
2009,07,05,05,29,13.80
2009,07,05,05,30,13.80
2009,07,05,05,31,13.80
2009,07,05,05,32,13.80
2009,07,05,05,33,13.80
2009,07,05,05,34,13.90
2009,07,05,05,35,13.90
2009,07,05,05,36,13.80
2009,07,05,05,37,13.80
2009,07,05,05,38,13.80
2009,07,05,05,39,13.80
2009,07,05,05,40,13.80
2009,07,05,05,41,13.70
2009,07,05,05,42,13.70
2009,07,05,05,43,13.70
2009,07,05,05,44,13.70
2009,07,05,05,45,13.70
2009,07,05,05,46,13.70
2009,07,05,05,47,13.70
2009,07,05,05,48,13.70
2009,07,05,05,49,13.70
2009,07,05,05,50,13.70
2009,07,05,05,51,13.70
2009,07,05,05,52,13.70
2009,07,05,05,53,13.80
2009,07,05,05,54,13.80
2009,07,05,05,55,13.90
2009,07,05,05,56,13.90
2009,07,05,05,57,14.00
2009,07,05,05,58,14.00
2009,07,05,05,59,14.10
2009,07,05,06,00,14.10
2009,07,05,06,01,14.10
2009,07,05,06,02,14.10
2009,07,05,06,03,14.10
2009,07,05,06,04,14.20
2009,07,05,06,05,14.20
2009,07,05,06,06,14.20
2009,07,05,06,07,14.30
2009,07,05,06,08,14.30
2009,07,05,06,09,14.30
2009,07,05,06,10,14.30
2009,07,05,06,11,14.30
2009,07,05,06,12,14.30
2009,07,05,06,13,14.30
2009,07,05,06,14,14.30
2009,07,05,06,15,14.30
2009,07,05,06,16,14.40
2009,07,05,06,17,14.40
2009,07,05,06,18,14.40
2009,07,05,06,19,14.40
2009,07,05,06,20,14.50
2009,07,05,06,21,14.50
2009,07,05,06,22,14.50
2009,07,05,06,23,14.50
2009,07,05,06,24,14.60
2009,07,05,06,25,14.60
2009,07,05,06,26,14.50
2009,07,05,06,27,14.50
2009,07,05,06,28,14.50
2009,07,05,06,29,14.50
2009,07,05,06,30,14.50
2009,07,05,06,31,14.50
2009,07,05,06,32,14.50
2009,07,05,06,33,14.50
2009,07,05,06,34,14.40
2009,07,05,06,35,14.50
2009,07,05,06,36,14.50
2009,07,05,06,37,14.50
2009,07,05,06,38,14.50
2009,07,05,06,39,14.60
2009,07,05,06,40,14.60
2009,07,05,06,41,14.60
2009,07,05,06,42,14.60
2009,07,05,06,43,14.60
2009,07,05,06,44,14.60
2009,07,05,06,45,14.60
2009,07,05,06,46,14.60
2009,07,05,06,47,14.70
2009,07,05,06,48,14.70
2009,07,05,06,49,14.70
2009,07,05,06,50,14.80
2009,07,05,06,51,14.80
2009,07,05,06,52,14.90
2009,07,05,06,53,15.00
2009,07,05,06,54,15.00
2009,07,05,06,55,15.00
2009,07,05,06,56,15.00
2009,07,05,06,57,15.00
2009,07,05,06,58,15.00
2009,07,05,06,59,15.10
2009,07,05,07,00,15.10
2009,07,05,07,01,15.20
2009,07,05,07,02,15.20
2009,07,05,07,03,15.30
2009,07,05,07,04,15.30
2009,07,05,07,05,15.30
2009,07,05,07,06,15.30
2009,07,05,07,07,15.30
2009,07,05,07,08,15.40
2009,07,05,07,09,15.40
2009,07,05,07,10,15.40
2009,07,05,07,11,15.50
2009,07,05,07,12,15.50
2009,07,05,07,13,15.60
2009,07,05,07,14,15.60
2009,07,05,07,15,15.60
2009,07,05,07,16,15.70
2009,07,05,07,17,15.70
2009,07,05,07,18,15.70
2009,07,05,07,19,15.80
2009,07,05,07,20,15.80
2009,07,05,07,21,15.80
2009,07,05,07,22,15.90
2009,07,05,07,23,15.90
2009,07,05,07,24,16.00
2009,07,05,07,25,16.00
2009,07,05,07,26,16.10
2009,07,05,07,27,16.10
2009,07,05,07,28,16.20
2009,07,05,07,29,16.30
2009,07,05,07,30,16.40
2009,07,05,07,31,16.40
2009,07,05,07,32,16.50
2009,07,05,07,33,16.60
2009,07,05,07,34,16.70
2009,07,05,07,35,16.70
2009,07,05,07,36,16.80
2009,07,05,07,37,16.90
2009,07,05,07,38,17.00
2009,07,05,07,39,17.10
2009,07,05,07,40,17.20
2009,07,05,07,41,17.30
2009,07,05,07,42,17.40
2009,07,05,07,43,17.50
2009,07,05,07,44,17.60
2009,07,05,07,45,17.70
2009,07,05,07,46,17.70
2009,07,05,07,47,17.70
2009,07,05,07,48,17.80
2009,07,05,07,49,17.80
2009,07,05,07,50,17.90
2009,07,05,07,51,18.00
2009,07,05,07,52,18.10
2009,07,05,07,53,18.20
2009,07,05,07,54,18.30
2009,07,05,07,55,18.40
2009,07,05,07,56,18.40
2009,07,05,07,57,18.40
2009,07,05,07,58,18.40
2009,07,05,07,59,18.40
2009,07,05,08,00,18.40
2009,07,05,08,01,18.40
2009,07,05,08,02,18.40
2009,07,05,08,03,18.40
2009,07,05,08,04,18.40
2009,07,05,08,05,18.40
2009,07,05,08,06,18.40
2009,07,05,08,07,18.40
2009,07,05,08,08,18.40
2009,07,05,08,09,18.30
2009,07,05,08,10,18.30
2009,07,05,08,11,18.40
2009,07,05,08,12,18.40
2009,07,05,08,13,18.40
2009,07,05,08,14,18.40
2009,07,05,08,15,18.50
2009,07,05,08,16,18.50
2009,07,05,08,17,18.60
2009,07,05,08,18,18.60
2009,07,05,08,19,18.70
2009,07,05,08,20,18.70
2009,07,05,08,21,18.80
2009,07,05,08,22,18.80
2009,07,05,08,23,18.90
2009,07,05,08,24,18.90
2009,07,05,08,25,18.90
2009,07,05,08,26,18.90
2009,07,05,08,27,18.90
2009,07,05,08,28,18.90
2009,07,05,08,29,18.90
2009,07,05,08,30,19.00
2009,07,05,08,31,19.00
2009,07,05,08,32,19.00
2009,07,05,08,33,19.10
2009,07,05,08,34,19.10
2009,07,05,08,35,19.20
2009,07,05,08,36,19.30
2009,07,05,08,37,19.40
2009,07,05,08,38,19.50
2009,07,05,08,39,19.60
2009,07,05,08,40,19.70
2009,07,05,08,41,19.80
2009,07,05,08,42,19.90
2009,07,05,08,43,19.90
2009,07,05,08,44,19.90
2009,07,05,08,45,20.00
2009,07,05,08,46,19.90
2009,07,05,08,47,19.90
2009,07,05,08,48,19.90
2009,07,05,08,49,19.90
2009,07,05,08,50,19.90
2009,07,05,08,51,19.90
2009,07,05,08,52,19.90
2009,07,05,08,53,19.90
2009,07,05,08,54,20.00
2009,07,05,08,55,20.00
2009,07,05,08,56,19.90
2009,07,05,08,57,19.90
2009,07,05,08,58,19.90
2009,07,05,08,59,19.90
2009,07,05,09,00,19.80
2009,07,05,09,01,19.80
2009,07,05,09,02,19.70
2009,07,05,09,03,19.60
2009,07,05,09,04,19.60
2009,07,05,09,05,19.50
2009,07,05,09,06,19.50
2009,07,05,09,07,19.50
2009,07,05,09,08,19.60
2009,07,05,09,09,19.60
2009,07,05,09,10,19.70
2009,07,05,09,11,19.70
2009,07,05,09,12,19.70
2009,07,05,09,13,19.80
2009,07,05,09,14,19.80
2009,07,05,09,15,19.80
2009,07,05,09,16,19.80
2009,07,05,09,17,19.90
2009,07,05,09,18,19.90
2009,07,05,09,19,19.80
2009,07,05,09,20,19.80
2009,07,05,09,21,19.80
2009,07,05,09,22,19.80
2009,07,05,09,23,19.80
2009,07,05,09,24,19.80
2009,07,05,09,25,19.80
2009,07,05,09,26,19.70
2009,07,05,09,27,19.60
2009,07,05,09,28,19.50
2009,07,05,09,29,19.40
2009,07,05,09,30,19.30
2009,07,05,09,31,19.30
2009,07,05,09,32,19.20
2009,07,05,09,33,19.20
2009,07,05,09,34,19.10
2009,07,05,09,35,19.00
2009,07,05,09,36,18.90
2009,07,05,09,37,18.90
2009,07,05,09,38,18.90
2009,07,05,09,39,18.90
2009,07,05,09,40,19.00
2009,07,05,09,41,19.00
2009,07,05,09,42,19.10
2009,07,05,09,43,19.10
2009,07,05,09,44,19.20
2009,07,05,09,45,19.30
2009,07,05,09,46,19.40
2009,07,05,09,47,19.50
2009,07,05,09,48,19.50
2009,07,05,09,49,19.50
2009,07,05,09,50,19.60
2009,07,05,09,51,19.60
2009,07,05,09,52,19.70
2009,07,05,09,53,19.70
2009,07,05,09,54,19.60
2009,07,05,09,55,19.60
2009,07,05,09,56,19.60
2009,07,05,09,57,19.50
2009,07,05,09,58,19.50
2009,07,05,09,59,19.40
2009,07,05,10,00,19.50
2009,07,05,10,01,19.50
2009,07,05,10,02,19.60
2009,07,05,10,03,19.70
2009,07,05,10,04,19.70
2009,07,05,10,05,19.80
2009,07,05,10,06,19.90
2009,07,05,10,07,19.90
2009,07,05,10,08,20.00
2009,07,05,10,09,20.00
2009,07,05,10,10,20.10
2009,07,05,10,11,20.10
2009,07,05,10,12,20.20
2009,07,05,10,13,20.20
2009,07,05,10,14,20.30
2009,07,05,10,15,20.30
2009,07,05,10,16,20.40
2009,07,05,10,17,20.40
2009,07,05,10,18,20.50
2009,07,05,10,19,20.60
2009,07,05,10,20,20.80
2009,07,05,10,21,20.90
2009,07,05,10,22,21.10
2009,07,05,10,23,21.20
2009,07,05,10,24,21.30
2009,07,05,10,25,21.30
2009,07,05,10,26,21.30
2009,07,05,10,27,21.30
2009,07,05,10,28,21.30
2009,07,05,10,29,21.30
2009,07,05,10,30,21.30
2009,07,05,10,31,21.20
2009,07,05,10,32,21.10
2009,07,05,10,33,21.10
2009,07,05,10,34,21.10
2009,07,05,10,35,21.10
2009,07,05,10,36,21.20
2009,07,05,10,37,21.30
2009,07,05,10,38,21.40
2009,07,05,10,39,21.40
2009,07,05,10,40,21.50
2009,07,05,10,41,21.60
2009,07,05,10,42,21.70
2009,07,05,10,43,21.80
2009,07,05,10,44,22.00
2009,07,05,10,45,22.10
2009,07,05,10,46,22.20
2009,07,05,10,47,22.30
2009,07,05,10,48,22.40
2009,07,05,10,49,22.40
2009,07,05,10,50,22.40
2009,07,05,10,51,22.40
2009,07,05,10,52,22.40
2009,07,05,10,53,22.40
2009,07,05,10,54,22.30
2009,07,05,10,55,22.30
2009,07,05,10,56,22.40
2009,07,05,10,57,22.40
2009,07,05,10,58,22.40
2009,07,05,10,59,22.50
2009,07,05,11,00,22.60
2009,07,05,11,01,22.60
2009,07,05,11,02,22.70
2009,07,05,11,03,22.70
2009,07,05,11,04,22.70
2009,07,05,11,05,22.70
2009,07,05,11,06,22.70
2009,07,05,11,07,22.80
2009,07,05,11,08,22.80
2009,07,05,11,09,22.90
2009,07,05,11,10,22.90
2009,07,05,11,11,23.00
2009,07,05,11,12,23.00
2009,07,05,11,13,23.10
2009,07,05,11,14,23.10
2009,07,05,11,15,23.10
2009,07,05,11,16,23.00
2009,07,05,11,17,22.90
2009,07,05,11,18,22.80
2009,07,05,11,19,22.80
2009,07,05,11,20,22.80
2009,07,05,11,21,22.80
2009,07,05,11,22,22.90
2009,07,05,11,23,23.00
2009,07,05,11,24,23.00
2009,07,05,11,25,23.10
2009,07,05,11,26,23.10
2009,07,05,11,27,23.10
2009,07,05,11,28,23.00
2009,07,05,11,29,22.90
2009,07,05,11,30,22.80
2009,07,05,11,31,22.70
2009,07,05,11,32,22.50
2009,07,05,11,33,22.40
2009,07,05,11,34,22.40
2009,07,05,11,35,22.50
2009,07,05,11,36,22.60
2009,07,05,11,37,22.80
2009,07,05,11,38,22.90
2009,07,05,11,39,23.00
2009,07,05,11,40,22.90
2009,07,05,11,41,22.80
2009,07,05,11,42,22.80
2009,07,05,11,43,22.80
2009,07,05,11,44,22.80
2009,07,05,11,45,22.80
2009,07,05,11,46,22.80
2009,07,05,11,47,22.80
2009,07,05,11,48,22.80
2009,07,05,11,49,22.80
2009,07,05,11,50,22.90
2009,07,05,11,51,22.80
2009,07,05,11,52,22.50
2009,07,05,11,53,22.30
2009,07,05,11,54,22.30
2009,07,05,11,55,22.20
2009,07,05,11,56,22.30
2009,07,05,11,57,22.40
2009,07,05,11,58,22.50
2009,07,05,11,59,22.60
2009,07,05,12,00,22.70
2009,07,05,12,01,22.80
2009,07,05,12,02,22.80
2009,07,05,12,03,22.90
2009,07,05,12,04,23.00
2009,07,05,12,05,23.10
2009,07,05,12,06,23.00
2009,07,05,12,07,22.90
2009,07,05,12,08,22.90
2009,07,05,12,09,22.80
2009,07,05,12,10,22.80
2009,07,05,12,11,22.90
2009,07,05,12,12,22.90
2009,07,05,12,13,23.00
2009,07,05,12,14,23.10
2009,07,05,12,15,23.20
2009,07,05,12,16,23.30
2009,07,05,12,17,23.40
2009,07,05,12,18,23.30
2009,07,05,12,19,23.20
2009,07,05,12,20,23.00
2009,07,05,12,21,22.80
2009,07,05,12,22,22.70
2009,07,05,12,23,22.60
2009,07,05,12,24,22.60
2009,07,05,12,25,22.60
2009,07,05,12,26,22.60
2009,07,05,12,27,22.70
2009,07,05,12,28,22.80
2009,07,05,12,29,22.80
2009,07,05,12,30,22.90
2009,07,05,12,31,22.90
2009,07,05,12,32,22.90
2009,07,05,12,33,22.90
2009,07,05,12,34,23.00
2009,07,05,12,35,23.00
2009,07,05,12,36,23.00
2009,07,05,12,37,23.00
2009,07,05,12,38,23.00
2009,07,05,12,39,22.90
2009,07,05,12,40,22.90
2009,07,05,12,41,22.90
2009,07,05,12,42,22.90
2009,07,05,12,43,22.90
2009,07,05,12,44,22.80
2009,07,05,12,45,22.80
2009,07,05,12,46,22.80
2009,07,05,12,47,22.60
2009,07,05,12,48,22.60
2009,07,05,12,49,22.70
2009,07,05,12,50,22.70
2009,07,05,12,51,22.80
2009,07,05,12,52,22.90
2009,07,05,12,53,23.10
2009,07,05,12,54,23.10
2009,07,05,12,55,23.10
2009,07,05,12,56,23.10
2009,07,05,12,57,23.10
2009,07,05,12,58,23.00
2009,07,05,12,59,23.00
2009,07,05,13,00,22.90
2009,07,05,13,01,22.90
2009,07,05,13,02,22.90
2009,07,05,13,03,22.90
2009,07,05,13,04,22.90
2009,07,05,13,05,22.90
2009,07,05,13,06,22.90
2009,07,05,13,07,22.90
2009,07,05,13,08,23.00
2009,07,05,13,09,23.00
2009,07,05,13,10,23.00
2009,07,05,13,11,22.90
2009,07,05,13,12,22.90
2009,07,05,13,13,23.00
2009,07,05,13,14,23.10
2009,07,05,13,15,23.10
2009,07,05,13,16,23.10
2009,07,05,13,17,23.20
2009,07,05,13,18,23.20
2009,07,05,13,19,23.30
2009,07,05,13,20,23.40
2009,07,05,13,21,23.40
2009,07,05,13,22,23.50
2009,07,05,13,23,23.60
2009,07,05,13,24,23.70
2009,07,05,13,25,23.70
2009,07,05,13,26,23.70
2009,07,05,13,27,23.60
2009,07,05,13,28,23.60
2009,07,05,13,29,23.50
2009,07,05,13,30,23.50
2009,07,05,13,31,23.40
2009,07,05,13,32,23.30
2009,07,05,13,33,23.10
2009,07,05,13,34,23.00
2009,07,05,13,35,22.80
2009,07,05,13,36,22.70
2009,07,05,13,37,22.70
2009,07,05,13,38,22.70
2009,07,05,13,39,22.80
2009,07,05,13,40,22.80
2009,07,05,13,41,22.80
2009,07,05,13,42,22.80
2009,07,05,13,43,22.90
2009,07,05,13,44,22.90
2009,07,05,13,45,22.90
2009,07,05,13,46,23.00
2009,07,05,13,47,23.10
2009,07,05,13,48,23.20
2009,07,05,13,49,23.30
2009,07,05,13,50,23.40
2009,07,05,13,51,23.50
2009,07,05,13,52,23.50
2009,07,05,13,53,23.60
2009,07,05,13,54,23.60
2009,07,05,13,55,23.60
2009,07,05,13,56,23.70
2009,07,05,13,57,23.70
2009,07,05,13,58,23.80
2009,07,05,13,59,23.80
2009,07,05,14,00,23.80
2009,07,05,14,01,23.80
2009,07,05,14,02,23.80
2009,07,05,14,03,23.80
2009,07,05,14,04,23.80
2009,07,05,14,05,23.80
2009,07,05,14,06,23.80
2009,07,05,14,07,23.80
2009,07,05,14,08,23.80
2009,07,05,14,09,23.80
2009,07,05,14,10,23.80
2009,07,05,14,11,23.80
2009,07,05,14,12,23.80
2009,07,05,14,13,23.80
2009,07,05,14,14,23.90
2009,07,05,14,15,24.00
2009,07,05,14,16,24.10
2009,07,05,14,17,24.10
2009,07,05,14,18,24.10
2009,07,05,14,19,24.20
2009,07,05,14,20,24.20
2009,07,05,14,21,24.30
2009,07,05,14,22,24.30
2009,07,05,14,23,24.40
2009,07,05,14,24,24.40
2009,07,05,14,25,24.40
2009,07,05,14,26,24.50
2009,07,05,14,27,24.50
2009,07,05,14,28,24.60
2009,07,05,14,29,24.60
2009,07,05,14,30,24.60
2009,07,05,14,31,24.60
2009,07,05,14,32,24.60
2009,07,05,14,33,24.70
2009,07,05,14,34,24.70
2009,07,05,14,35,24.60
2009,07,05,14,36,24.60
2009,07,05,14,37,24.60
2009,07,05,14,38,24.70
2009,07,05,14,39,24.70
2009,07,05,14,40,24.80
2009,07,05,14,41,24.90
2009,07,05,14,42,24.80
2009,07,05,14,43,24.70
2009,07,05,14,44,24.60
2009,07,05,14,45,24.50
2009,07,05,14,46,24.40
2009,07,05,14,47,24.30
2009,07,05,14,48,24.30
2009,07,05,14,49,24.30
2009,07,05,14,50,24.30
2009,07,05,14,51,24.40
2009,07,05,14,52,24.40
2009,07,05,14,53,24.40
2009,07,05,14,54,24.40
2009,07,05,14,55,24.50
2009,07,05,14,56,24.50
2009,07,05,14,57,24.60
2009,07,05,14,58,24.60
2009,07,05,14,59,24.60
2009,07,05,15,00,24.60
2009,07,05,15,01,24.60
2009,07,05,15,02,24.50
2009,07,05,15,03,24.50
2009,07,05,15,04,24.40
2009,07,05,15,05,24.40
2009,07,05,15,06,24.40
2009,07,05,15,07,24.30
2009,07,05,15,08,24.30
2009,07,05,15,09,24.30
2009,07,05,15,10,24.20
2009,07,05,15,11,24.10
2009,07,05,15,12,24.10
2009,07,05,15,13,24.00
2009,07,05,15,14,23.90
2009,07,05,15,15,23.80
2009,07,05,15,16,23.70
2009,07,05,15,17,23.70
2009,07,05,15,18,23.70
2009,07,05,15,19,23.70
2009,07,05,15,20,23.80
2009,07,05,15,21,23.80
2009,07,05,15,22,23.90
2009,07,05,15,23,23.90
2009,07,05,15,24,23.80
2009,07,05,15,25,23.70
2009,07,05,15,26,23.70
2009,07,05,15,27,23.70
2009,07,05,15,28,23.60
2009,07,05,15,29,23.60
2009,07,05,15,30,23.70
2009,07,05,15,31,23.80
2009,07,05,15,32,23.90
2009,07,05,15,33,24.00
2009,07,05,15,34,24.10
2009,07,05,15,35,24.10
2009,07,05,15,36,24.20
2009,07,05,15,37,24.20
2009,07,05,15,38,24.10
2009,07,05,15,39,24.10
2009,07,05,15,40,24.00
2009,07,05,15,41,24.00
2009,07,05,15,42,24.10
2009,07,05,15,43,24.20
2009,07,05,15,44,24.30
2009,07,05,15,45,24.40
2009,07,05,15,46,24.50
2009,07,05,15,47,24.50
2009,07,05,15,48,24.40
2009,07,05,15,49,24.40
2009,07,05,15,50,24.40
2009,07,05,15,51,24.30
2009,07,05,15,52,24.30
2009,07,05,15,53,24.20
2009,07,05,15,54,24.10
2009,07,05,15,55,24.00
2009,07,05,15,56,23.80
2009,07,05,15,57,23.70
2009,07,05,15,58,23.70
2009,07,05,15,59,23.70
2009,07,05,16,00,23.70
2009,07,05,16,01,23.70
2009,07,05,16,02,23.70
2009,07,05,16,03,23.80
2009,07,05,16,04,23.80
2009,07,05,16,05,23.80
2009,07,05,16,06,23.90
2009,07,05,16,07,24.00
2009,07,05,16,08,24.00
2009,07,05,16,09,24.10
2009,07,05,16,10,24.20
2009,07,05,16,11,24.20
2009,07,05,16,12,24.20
2009,07,05,16,13,24.30
2009,07,05,16,14,24.30
2009,07,05,16,15,24.30
2009,07,05,16,16,24.50
2009,07,05,16,17,24.60
2009,07,05,16,18,24.70
2009,07,05,16,19,24.80
2009,07,05,16,20,24.80
2009,07,05,16,21,24.90
2009,07,05,16,22,25.10
2009,07,05,16,23,25.10
2009,07,05,16,24,25.10
2009,07,05,16,25,25.20
2009,07,05,16,26,25.20
2009,07,05,16,27,25.20
2009,07,05,16,28,25.30
2009,07,05,16,29,25.30
2009,07,05,16,30,25.30
2009,07,05,16,31,25.30
2009,07,05,16,32,25.30
2009,07,05,16,33,25.20
2009,07,05,16,34,25.20
2009,07,05,16,35,25.30
2009,07,05,16,36,25.20
2009,07,05,16,37,25.20
2009,07,05,16,38,25.10
2009,07,05,16,39,25.00
2009,07,05,16,40,24.90
2009,07,05,16,41,24.80
2009,07,05,16,42,24.70
2009,07,05,16,43,24.60
2009,07,05,16,44,24.60
2009,07,05,16,45,24.60
2009,07,05,16,46,24.60
2009,07,05,16,47,24.60
2009,07,05,16,48,24.60
2009,07,05,16,49,24.60
2009,07,05,16,50,24.60
2009,07,05,16,51,24.60
2009,07,05,16,52,24.70
2009,07,05,16,53,24.70
2009,07,05,16,54,24.70
2009,07,05,16,55,24.80
2009,07,05,16,56,24.80
2009,07,05,16,57,24.90
2009,07,05,16,58,24.90
2009,07,05,16,59,24.90
2009,07,05,17,00,24.90
2009,07,05,17,01,24.90
2009,07,05,17,02,24.90
2009,07,05,17,03,24.90
2009,07,05,17,04,24.90
2009,07,05,17,05,24.90
2009,07,05,17,06,24.80
2009,07,05,17,07,24.80
2009,07,05,17,08,24.70
2009,07,05,17,09,24.60
2009,07,05,17,10,24.60
2009,07,05,17,11,24.60
2009,07,05,17,12,24.50
2009,07,05,17,13,24.50
2009,07,05,17,14,24.50
2009,07,05,17,15,24.50
2009,07,05,17,16,24.40
2009,07,05,17,17,24.40
2009,07,05,17,18,24.30
2009,07,05,17,19,24.30